| time (UTC) | temp F | wind direction | speed MPH | gust MPH | rain 1hr in | rain 24hr in | rain mn in | humidity % | barometer mb |
| 20260902200404 | 51 | 329 | 3.0 | 5.0 | 0.00 | 0.00 | 0.00 | 92 | 1019.4 |
| 20260902194904 | 50 | 321 | 3.0 | 5.0 | 0.00 | 0.00 | 0.00 | 92 | 1019.3 |
| 20260902194404 | 50 | 321 | 3.0 | 5.0 | 0.00 | 0.00 | 0.00 | 92 | 1019.3 |
| 20260902193404 | 49 | 319 | 5.0 | 5.0 | 0.00 | 0.00 | 0.00 | 92 | 1019.3 |
| 20260902191904 | 49 | 317 | 3.0 | 3.0 | 0.00 | 0.00 | 0.00 | 92 | 1019.3 |
| 20260902190406 | 50 | 291 | 2.0 | 3.0 | 0.00 | 0.00 | 0.00 | 92 | 1019.3 |
| 20260902185905 | 49 | 291 | 2.0 | 3.0 | 0.00 | 0.00 | 0.00 | 92 | 1019.3 |
| 20260902184905 | 49 | 249 | 1.0 | 3.0 | 0.00 | 0.00 | 0.00 | 92 | 1019.2 |
| 20260902183905 | 50 | 246 | 2.0 | 3.0 | 0.00 | 0.00 | 0.00 | 92 | 1019.0 |
| 20260902181905 | 48 | 265 | 3.0 | 5.0 | 0.00 | 0.00 | 0.00 | 92 | 1019.1 |
| 20260902181405 | 47 | 285 | 4.0 | 6.0 | 0.00 | 0.00 | 0.00 | 92 | 1019.0 |
| 20260902175905 | 47 | 294 | 4.0 | 6.0 | 0.00 | 0.00 | 0.00 | 91 | 1018.8 |
| 20260902175405 | 48 | 298 | 5.0 | 6.0 | 0.00 | 0.00 | 0.00 | 92 | 1018.7 |
| 20260902174906 | 48 | 303 | 5.0 | 7.0 | 0.00 | 0.00 | 0.00 | 92 | 1018.6 |
| 20260902174405 | 48 | 303 | 6.0 | 7.0 | 0.00 | 0.00 | 0.00 | 92 | 1018.7 |
| 20260902173905 | 48 | 300 | 6.0 | 7.0 | 0.00 | 0.00 | 0.00 | 92 | 1018.7 |
| 20260902173405 | 47 | 302 | 6.0 | 7.0 | 0.00 | 0.00 | 0.00 | 91 | 1018.6 |
| 20260902172905 | 47 | 311 | 5.0 | 6.0 | 0.00 | 0.00 | 0.00 | 91 | 1018.7 |
| 20260902172405 | 47 | 327 | 4.0 | 5.0 | 0.00 | 0.00 | 0.00 | 91 | 1018.7 |
| 20260902165405 | 49 | 329 | 2.0 | 5.0 | 0.00 | 0.00 | 0.00 | 91 | 1018.6 |
| 20260902164905 | 49 | 329 | 3.0 | 5.0 | 0.00 | 0.00 | 0.00 | 91 | 1018.5 |
| 20260902164405 | 49 | 328 | 3.0 | 5.0 | 0.00 | 0.00 | 0.00 | 91 | 1018.6 |
| 20260902163905 | 49 | 324 | 1.0 | 3.0 | 0.00 | 0.00 | 0.00 | 91 | 1018.5 |
| 20260902160905 | 51 | 333 | 6.0 | 6.0 | 0.00 | 0.00 | 0.00 | 91 | 1018.4 |
| 20260902155905 | 51 | 330 | 5.0 | 7.0 | 0.00 | 0.00 | 0.00 | 91 | 1018.4 |
| 20260902155405 | 51 | 329 | 6.0 | 7.0 | 0.00 | 0.00 | 0.00 | 91 | 1018.6 |
| 20260902154405 | 51 | 329 | 7.0 | 9.0 | 0.00 | 0.00 | 0.00 | 90 | 1018.7 |
| 20260902152905 | 52 | 323 | 6.0 | 7.0 | 0.00 | 0.00 | 0.00 | 91 | 1018.7 |
| 20260902152405 | 52 | 316 | 5.0 | 6.0 | 0.00 | 0.00 | 0.00 | 91 | 1018.7 |
| 20260902151905 | 52 | 315 | 5.0 | 6.0 | 0.00 | 0.00 | 0.00 | 91 | 1018.7 |
| 20260902151405 | 53 | 315 | 5.0 | 7.0 | 0.00 | 0.00 | 0.00 | 91 | 1018.8 |
| 20260902145904 | 53 | 317 | 6.0 | 7.0 | 0.00 | 0.00 | 0.00 | 91 | 1019.1 |
| 20260902144405 | 53 | 321 | 6.0 | 7.0 | 0.00 | 0.00 | 0.00 | 90 | 1019.3 |
| 20260902143904 | 53 | 319 | 6.0 | 7.0 | 0.00 | 0.00 | 0.00 | 90 | 1019.3 |
| 20260902142405 | 53 | 318 | 6.0 | 7.0 | 0.00 | 0.00 | 0.00 | 90 | 1019.3 |
| 20260902141905 | 53 | 314 | 5.0 | 6.0 | 0.00 | 0.00 | 0.00 | 90 | 1019.3 |
| 20260902140406 | 53 | 292 | 6.0 | 6.0 | 0.00 | 0.00 | 0.00 | 91 | 1019.3 |
| 20260902135405 | 53 | 293 | 5.0 | 6.0 | 0.00 | 0.00 | 0.00 | 91 | 1019.4 |
| 20260902134405 | 53 | 296 | 5.0 | 6.0 | 0.00 | 0.00 | 0.00 | 91 | 1019.3 |
| 20260902133905 | 53 | 301 | 5.0 | 6.0 | 0.00 | 0.00 | 0.00 | 91 | 1019.3 |
| 20260902133405 | 53 | 304 | 5.0 | 6.0 | 0.00 | 0.00 | 0.00 | 91 | 1019.3 |
| 20260902132904 | 53 | 304 | 5.0 | 6.0 | 0.00 | 0.00 | 0.00 | 91 | 1019.2 |
| 20260902131404 | 53 | 306 | 5.0 | 6.0 | 0.00 | 0.00 | 0.00 | 91 | 1019.2 |
| 20260902130905 | 53 | 306 | 5.0 | 6.0 | 0.00 | 0.00 | 0.00 | 91 | 1019.2 |
| 20260902125404 | 54 | 305 | 5.0 | 6.0 | 0.00 | 0.00 | 0.00 | 91 | 1019.1 |
| 20260902124405 | 54 | 281 | 5.0 | 5.0 | 0.00 | 0.00 | 0.00 | 91 | 1019.0 |
| 20260902122904 | 53 | 279 | 5.0 | 7.0 | 0.00 | 0.00 | 0.00 | 91 | 1019.0 |
| 20260902115905 | 53 | 303 | 7.0 | 9.0 | 0.00 | 0.00 | 0.00 | 92 | 1018.8 |
| 20260902115405 | 53 | 308 | 7.0 | 9.0 | 0.00 | 0.00 | 0.00 | 91 | 1018.9 |
| 20260902114905 | 53 | 306 | 5.0 | 7.0 | 0.00 | 0.00 | 0.00 | 91 | 1018.8 |
| 20260902113405 | 53 | 315 | 6.0 | 6.0 | 0.00 | 0.00 | 0.00 | 91 | 1018.9 |
| 20260902112904 | 53 | 300 | 3.0 | 3.0 | 0.00 | 0.00 | 0.00 | 91 | 1018.8 |
| 20260902111905 | 53 | 300 | 3.0 | 5.0 | 0.00 | 0.00 | 0.00 | 91 | 1018.8 |
| 20260902111405 | 53 | 300 | 3.0 | 5.0 | 0.00 | 0.00 | 0.00 | 91 | 1018.8 |
| 20260902110905 | 53 | 300 | 4.0 | 5.0 | 0.00 | 0.00 | 0.00 | 91 | 1018.9 |
| 20260902105904 | 53 | 300 | 3.0 | 5.0 | 0.00 | 0.00 | 0.00 | 91 | 1018.9 |
| 20260902105405 | 53 | 300 | 3.0 | 3.0 | 0.00 | 0.00 | 0.00 | 91 | 1018.9 |
| 20260902103905 | 53 | 300 | 6.0 | 7.0 | 0.00 | 0.00 | 0.00 | 91 | 1019.0 |
| 20260902102906 | 53 | 290 | 4.0 | 5.0 | 0.00 | 0.00 | 0.00 | 91 | 1019.0 |
| 20260902102404 | 52 | 290 | 5.0 | 6.0 | 0.00 | 0.00 | 0.00 | 91 | 1019.0 |
| 20260902101905 | 52 | 290 | 5.0 | 6.0 | 0.00 | 0.00 | 0.00 | 91 | 1018.9 |
| 20260902100905 | 53 | 289 | 3.0 | 5.0 | 0.00 | 0.00 | 0.00 | 90 | 1018.8 |
| 20260902100405 | 53 | 289 | 3.0 | 3.0 | 0.00 | 0.00 | 0.00 | 90 | 1018.8 |
| 20260902095405 | 53 | 288 | 3.0 | 5.0 | 0.00 | 0.00 | 0.00 | 90 | 1018.8 |
| 20260902094905 | 53 | 288 | 3.0 | 5.0 | 0.00 | 0.00 | 0.00 | 90 | 1018.7 |
| 20260902092405 | 52 | 279 | 5.0 | 5.0 | 0.00 | 0.00 | 0.00 | 90 | 1018.6 |
| 20260902090904 | 52 | 277 | 5.0 | 7.0 | 0.00 | 0.00 | 0.00 | 90 | 1018.7 |
| 20260902090405 | 51 | 280 | 6.0 | 7.0 | 0.00 | 0.00 | 0.00 | 90 | 1018.7 |
| 20260902084405 | 51 | 288 | 6.0 | 8.0 | 0.00 | 0.00 | 0.00 | 88 | 1018.7 |
| 20260902083905 | 51 | 286 | 6.0 | 9.0 | 0.00 | 0.00 | 0.00 | 88 | 1018.6 |
| 20260902082905 | 53 | 286 | 6.0 | 8.0 | 0.00 | 0.00 | 0.00 | 89 | 1018.6 |
| 20260902081905 | 53 | 282 | 7.0 | 10.0 | 0.00 | 0.00 | 0.00 | 89 | 1018.4 |
| 20260902081405 | 53 | 290 | 9.0 | 10.0 | 0.00 | 0.00 | 0.00 | 89 | 1018.4 |
| 20260902080905 | 53 | 289 | 8.0 | 10.0 | 0.00 | 0.00 | 0.00 | 89 | 1018.4 |
| 20260902075905 | 54 | 293 | 9.0 | 12.0 | 0.00 | 0.00 | 0.00 | 89 | 1018.4 |
| 20260902074405 | 54 | 302 | 9.0 | 12.0 | 0.00 | 0.00 | 0.00 | 88 | 1018.5 |
| 20260902073905 | 55 | 302 | 6.0 | 7.0 | 0.00 | 0.00 | 0.00 | 88 | 1018.4 |
| 20260902071905 | 55 | 288 | 9.0 | 10.0 | 0.00 | 0.00 | 0.00 | 87 | 1018.6 |
| 20260902070404 | 56 | 283 | 8.0 | 12.0 | 0.00 | 0.00 | 0.00 | 87 | 1018.6 |
| 20260902065904 | 56 | 281 | 6.0 | 7.0 | 0.00 | 0.00 | 0.00 | 87 | 1018.6 |
| 20260902064904 | 55 | 277 | 4.0 | 6.0 | 0.00 | 0.00 | 0.00 | 87 | 1018.6 |
| 20260902063905 | 55 | 279 | 3.0 | 5.0 | 0.00 | 0.00 | 0.00 | 87 | 1018.5 |
| 20260902062904 | 55 | 272 | 3.0 | 6.0 | 0.00 | 0.00 | 0.00 | 87 | 1018.5 |
| 20260902061405 | 55 | 262 | 7.0 | 12.0 | 0.00 | 0.00 | 0.00 | 85 | 1018.4 |
| 20260902060404 | 56 | 260 | 10.0 | 15.0 | 0.00 | 0.00 | 0.00 | 84 | 1018.4 |
| 20260902054404 | 57 | 265 | 13.0 | 17.0 | 0.00 | 0.00 | 0.00 | 81 | 1018.2 |
| 20260902053905 | 57 | 268 | 11.0 | 12.0 | 0.00 | 0.00 | 0.00 | 81 | 1018.1 |
| 20260902052905 | 57 | 259 | 12.0 | 16.0 | 0.00 | 0.00 | 0.00 | 79 | 1018.1 |
| 20260902051905 | 58 | 263 | 11.0 | 14.0 | 0.00 | 0.00 | 0.00 | 80 | 1018.1 |
| 20260902045405 | 58 | 268 | 13.0 | 16.0 | 0.00 | 0.00 | 0.00 | 79 | 1018.2 |
| 20260902044404 | 59 | 270 | 15.0 | 20.0 | 0.00 | 0.00 | 0.00 | 79 | 1018.1 |
| 20260902043905 | 59 | 258 | 9.0 | 14.0 | 0.00 | 0.00 | 0.00 | 79 | 1018.0 |
| 20260902043404 | 59 | 261 | 11.0 | 16.0 | 0.00 | 0.00 | 0.00 | 79 | 1018.0 |
| 20260902042905 | 59 | 264 | 15.0 | 18.0 | 0.00 | 0.00 | 0.00 | 78 | 1018.0 |
| 20260902042406 | 59 | 274 | 18.0 | 22.0 | 0.00 | 0.00 | 0.00 | 77 | 1018.0 |
| 20260902041904 | 59 | 266 | 14.0 | 18.0 | 0.00 | 0.00 | 0.00 | 78 | 1017.9 |
| 20260902035904 | 60 | 275 | 17.0 | 23.0 | 0.00 | 0.00 | 0.00 | 79 | 1017.9 |
| 20260902035405 | 60 | 270 | 15.0 | 17.0 | 0.00 | 0.00 | 0.00 | 79 | 1018.0 |
| 20260902034404 | 59 | 252 | 14.0 | 20.0 | 0.00 | 0.00 | 0.00 | 81 | 1018.2 |
| 20260902033405 | 59 | 260 | 17.0 | 21.0 | 0.00 | 0.00 | 0.00 | 78 | 1018.2 |
| 20260902032905 | 60 | 255 | 15.0 | 22.0 | 0.00 | 0.00 | 0.00 | 76 | 1018.2 |
| 20260902031405 | 60 | 257 | 18.0 | 23.0 | 0.00 | 0.00 | 0.00 | 75 | 1018.1 |
| 20260902030404 | 61 | 261 | 20.0 | 26.0 | 0.00 | 0.00 | 0.00 | 76 | 1018.2 |
| 20260902024904 | 62 | 267 | 21.0 | 26.0 | 0.00 | 0.00 | 0.00 | 76 | 1018.0 |
| 20260902022405 | 61 | 248 | 22.0 | 28.0 | 0.00 | 0.00 | 0.00 | 76 | 1018.2 |
| 20260902021405 | 61 | 258 | 20.0 | 26.0 | 0.00 | 0.00 | 0.00 | 78 | 1018.1 |
| 20260902020904 | 60 | 253 | 20.0 | 29.0 | 0.00 | 0.00 | 0.00 | 81 | 1018.2 |
| 20260902020405 | 59 | 251 | 23.0 | 29.0 | 0.00 | 0.00 | 0.00 | 82 | 1018.3 |
| 20260902015404 | 61 | 259 | 22.0 | 26.0 | 0.00 | 0.00 | 0.00 | 75 | 1018.3 |
| 20260902014405 | 61 | 248 | 21.0 | 26.0 | 0.00 | 0.00 | 0.00 | 78 | 1018.5 |
| 20260902013904 | 62 | 232 | 20.0 | 29.0 | 0.00 | 0.00 | 0.00 | 78 | 1018.6 |
| 20260902011905 | 62 | 264 | 26.0 | 33.0 | 0.00 | 0.00 | 0.00 | 75 | 1018.6 |
| 20260902010904 | 62 | 263 | 24.0 | 29.0 | 0.00 | 0.00 | 0.00 | 73 | 1018.6 |
| 20260902003405 | 62 | 256 | 20.0 | 25.0 | 0.00 | 0.00 | 0.00 | 73 | 1019.0 |
| 20260902001904 | 62 | 262 | 22.0 | 29.0 | 0.00 | 0.00 | 0.00 | 74 | 1019.2 |
| 20260902000406 | 61 | 257 | 21.0 | 26.0 | 0.00 | 0.00 | 0.00 | 74 | 1019.1 |
| 20260901235904 | 61 | 257 | 22.0 | 26.0 | 0.00 | 0.00 | 0.00 | 73 | 1019.2 |
| 20260901234904 | 62 | 264 | 23.0 | 26.0 | 0.00 | 0.00 | 0.00 | 74 | 1019.2 |
| 20260901233904 | 61 | 253 | 16.0 | 23.0 | 0.00 | 0.00 | 0.00 | 77 | 1019.3 |
| 20260901233404 | 61 | 255 | 19.0 | 24.0 | 0.00 | 0.00 | 0.00 | 77 | 1019.4 |
| 20260901231905 | 60 | 262 | 21.0 | 26.0 | 0.00 | 0.00 | 0.00 | 79 | 1019.4 |
| 20260901231404 | 60 | 271 | 20.0 | 26.0 | 0.00 | 0.00 | 0.00 | 80 | 1019.5 |
| 20260901224404 | 61 | 256 | 22.0 | 30.0 | 0.00 | 0.00 | 0.00 | 77 | 1019.3 |
| 20260901221404 | 60 | 264 | 21.0 | 28.0 | 0.00 | 0.00 | 0.00 | 75 | 1019.3 |
| 20260901215905 | 60 | 251 | 18.0 | 30.0 | 0.00 | 0.00 | 0.00 | 77 | 1019.4 |
| 20260901215404 | 60 | 253 | 19.0 | 24.0 | 0.00 | 0.00 | 0.00 | 78 | 1019.4 |
| 20260901214904 | 60 | 262 | 24.0 | 29.0 | 0.00 | 0.00 | 0.00 | 76 | 1019.4 |
| 20260901213905 | 59 | 250 | 16.0 | 21.0 | 0.00 | 0.00 | 0.00 | 79 | 1019.5 |
| 20260901212904 | 59 | 254 | 13.0 | 18.0 | 0.00 | 0.00 | 0.00 | 78 | 1019.4 |
| 20260901212404 | 59 | 251 | 14.0 | 20.0 | 0.00 | 0.00 | 0.00 | 81 | 1019.4 |
| 20260901211903 | 59 | 258 | 13.0 | 16.0 | 0.00 | 0.00 | 0.00 | 81 | 1019.6 |
| 20260901210404 | 58 | 256 | 13.0 | 17.0 | 0.00 | 0.00 | 0.00 | 82 | 1019.6 |
| 20260901205904 | 58 | 256 | 11.0 | 14.0 | 0.00 | 0.00 | 0.00 | 83 | 1019.7 |
| 20260901205404 | 58 | 275 | 14.0 | 18.0 | 0.00 | 0.00 | 0.00 | 83 | 1019.6 |
| 20260901204904 | 58 | 258 | 10.0 | 16.0 | 0.00 | 0.00 | 0.00 | 82 | 1019.6 |
| 20260901203904 | 57 | 257 | 12.0 | 14.0 | 0.00 | 0.00 | 0.00 | 84 | 1019.5 |
| 20260901203404 | 57 | 255 | 12.0 | 15.0 | 0.00 | 0.00 | 0.00 | 85 | 1019.6 |
| 20260901202904 | 57 | 264 | 10.0 | 13.0 | 0.00 | 0.00 | 0.00 | 85 | 1019.5 |